Hopewell, New Jersey, United States (08525)
Lat: 40.39N, Lon: 74.76W
Wx Zone: NJZ015
Local Info
Past Weather Observations for Monday, July 27, 2015

NOTE: This archive is for the closest National Weather Service station to Hopewell. Information may differ from the station used for current weather conditions.

Click here for Long-term Archive

Time Weather Temperature Dewpoint Humidity Pressure Winds Precip Visibility
23:58
Clear
Fog And Mist
72°F / 22°C 68°F / 20°C 88% 30.01 in
(1016 mb)
Calm - 3SM
23:53
Clear
Fog And Mist
70°F / 21°C 68°F / 20°C 94% 30.01 in
(1016 mb)
Calm - 1 3/4SM
23:50
Clear
Fog And Mist
70°F / 21°C 68°F / 20°C 94% 30.01 in
(1016 mb)
Calm - 1 3/4SM
22:53
Partly Cloudy
72°F / 22°C 70°F / 21°C 94% 30.01 in
(1016 mb)
Calm - 8SM
21:53
Clear
73°F / 23°C 70°F / 21°C 89% 30.01 in
(1016 mb)
Calm - 10SM
20:53
Partly Cloudy
75°F / 24°C 70°F / 21°C 83% 30.01 in
(1016 mb)
SSE 3.5 mph
(SSE 6 kph)
- 10SM
19:53
Mostly Cloudy
77°F / 25°C 70°F / 21°C 79% 29.98 in
(1015 mb)
SSE 3.5 mph
(SSE 6 kph)
- 10SM
18:53
Mostly Cloudy
79°F / 26°C 70°F / 21°C 74% 29.98 in
(1015 mb)
Calm - 10SM
17:53
Clear
77°F / 25°C 64°F / 18°C 65% 29.98 in
(1015 mb)
SSE 3.5 mph
(SSE 6 kph)
- 10SM
17:22
Partly Cloudy
79°F / 26°C 64°F / 18°C 61% 29.95 in
(1014 mb)
Variable 6.9 mph
(Variable 11 kph)
- 10SM
16:53
Partly Cloudy
Thunder Storms
79°F / 26°C 66°F / 19°C 65% 29.95 in
(1014 mb)
SSE 8.1 mph
(SSE 13 kph)
- 10SM
16:40
Mostly Cloudy
81°F / 27°C 68°F / 20°C 66% 29.95 in
(1014 mb)
Variable 6.9 mph
(Variable 11 kph)
- 10SM
16:00
Partly Cloudy
Thunder Storms
86°F / 30°C 66°F / 19°C 52% 29.95 in
(1014 mb)
S 4.6 mph
(S 7 kph)
- 10SM
15:53
Partly Cloudy
84°F / 29°C 66°F / 19°C 55% 29.95 in
(1014 mb)
Calm - 10SM
14:53
Mostly Cloudy
84°F / 29°C 66°F / 19°C 55% 29.98 in
(1015 mb)
Variable 3.5 mph
(Variable 6 kph)
- 10SM
13:53
Partly Cloudy
86°F / 30°C 66°F / 19°C 52% 29.98 in
(1015 mb)
Variable 3.5 mph
(Variable 6 kph)
- 10SM
12:53
Partly Cloudy
84°F / 29°C 66°F / 19°C 55% 30.01 in
(1016 mb)
SSW 5.8 mph
(SSW 9 kph)
- 10SM
11:53
Mostly Cloudy
82°F / 28°C 66°F / 19°C 58% 30.01 in
(1016 mb)
Calm - 10SM
10:53
Partly Cloudy
81°F / 27°C 66°F / 19°C 62% 30.04 in
(1017 mb)
Variable 3.5 mph
(Variable 6 kph)
- 10SM
09:53
Partly Cloudy
81°F / 27°C 68°F / 20°C 66% 30.04 in
(1017 mb)
Calm - 10SM
09:49
Mostly Cloudy
81°F / 27°C 68°F / 20°C 66% 30.04 in
(1017 mb)
NNW 3.5 mph
(NNW 6 kph)
- 10SM
09:06
Partly Cloudy
77°F / 25°C 68°F / 20°C 74% 30.04 in
(1017 mb)
Calm - 10SM
08:53
Mostly Cloudy
77°F / 25°C 68°F / 20°C 74% 30.04 in
(1017 mb)
Calm - 10SM
07:53
Partly Cloudy
73°F / 23°C 68°F / 20°C 83% 30.04 in
(1017 mb)
Calm - 9SM
06:53
Clear
Fog And Mist
72°F / 22°C 68°F / 20°C 88% 30.01 in
(1016 mb)
Calm - 6SM
05:53
Mostly Cloudy
Fog And Mist
70°F / 21°C 66°F / 19°C 88% 30.01 in
(1016 mb)
Calm - 4SM
05:45
Mostly Cloudy
Fog And Mist
70°F / 21°C 66°F / 19°C 88% 30.01 in
(1016 mb)
Calm - 4SM
05:24
Mostly Cloudy
Fog And Mist
70°F / 21°C 66°F / 19°C 88% 30.01 in
(1016 mb)
Calm - 4SM
04:53
Partly Cloudy
Fog And Mist
70°F / 21°C 68°F / 20°C 94% 29.98 in
(1015 mb)
Calm - 4SM
04:44
Clear
Fog And Mist
70°F / 21°C 66°F / 19°C 88% 29.98 in
(1015 mb)
Calm - 1 3/4SM
04:30
Partly Cloudy
Fog And Mist
70°F / 21°C 66°F / 19°C 88% 29.98 in
(1015 mb)
Calm - 6SM
04:07
Mostly Cloudy
Fog And Mist
70°F / 21°C 68°F / 20°C 94% 29.98 in
(1015 mb)
SE 3.5 mph
(SE 6 kph)
- 5SM
03:53
Partly Cloudy
Fog And Mist
70°F / 21°C 68°F / 20°C 94% 29.98 in
(1015 mb)
Calm 0.01 in
(0.25 mm)
5SM
02:53
Mostly Cloudy
Light Rain
72°F / 22°C 68°F / 20°C 88% 29.95 in
(1014 mb)
S 5.8 mph
(S 9 kph)
0.18 in
(4.57 mm)
5SM
01:53
Overcast
Light Rain
72°F / 22°C 66°F / 19°C 83% 29.98 in
(1015 mb)
Calm 0.00 in
(0.00 mm)
9SM
00:53
Partly Cloudy
73°F / 23°C 64°F / 18°C 74% 29.98 in
(1015 mb)
Calm - 10SM
Time Weather Temperature Dewpoint Humidity Pressure Winds Precip Visibility


Weather for websites

WeatherForYou.com, LLC is not responsible for any damages or problems caused by this service. Current weather conditions are obtained from the closest station including government and personal stations which may have varying degrees of accuracy. Weather forecasts are derived from the NOAA NDFD. Like all things, this site belongs to Jesus Christ... He just trusts us to maintain it. If you have any questions or comments email webmaster@weatherforyou.com

Copyright © 2015, WeatherForYou.com LLC. All rights reserved.